Nnamdi Azikiwe International Airport

Airport
ICAO code: 
DNAA
IATA Code: 
ABV
Summary
ICAO Region: 
AFI
Territory: 
Location: 
Gwaska, Federal Capital Territory
Serving: 
Abuja
Elevation: 
1123 ft
Coordinates: 
Aerial View: 
9° 0' 24.012" N, 7° 15' 47.988" E
Metar
Observation
DNAA 272000Z 05002KT 9999 FEW009 24/23 Q1014 NOSIG
Station
ABUJA
Date/Time
2022-06-27 20:00:00
Wind direction
50°
Wind speed
02 kts
Lowest cloud amount
few clouds
Temperature
24°C
Dew point
23°C
Humidity
94%
QNH
1014 hPa
Weather condition
n/a

Nnamdi Azikiwe International Airport is located in Abuja, Federal Capital Territory, Nigeria, and is the main airport serving the Nigerian capital city.

Climatology

Tropical Savanna climate (Köppen climate classification Aw)

Runways

Designator Length Width Surface Rops
4/22 3609 60 ASP Yes/Yes
Airport map: 
Aerial View: 

Accidents and Serious Incidents at or in the vicinity of DNAA

SKYbrary Partners:

Safety knowledge contributed by: